Wind_Speed
25 33 35 39 34 36 36 33 29 26 22 19 14 6 8 11 13 14 14 12 11 7 7 6 3 5 7 7 6 9 11 13
20 18 30 30 35 38 38 34 29 26 21 17 11 8 9 11 12 13 12 10 8 8 9 8 6 6 7 6 8 10 12 13
13 15 13 30 32 35 32 29 27 23 20 15 9 12 10 16 15 14 12 8 7 8 3 1 5 6 5 9 13 12 11 13
8 13 21 28 30 31 27 24 23 22 19 16 13 15 18 18 17 13 8 8 7 4 1 4 5 5 8 11 12 11 11 14
10 17 22 25 24 21 21 20 21 21 15 22 22 20 23 21 17 11 9 8 3 3 5 8 9 9 8 11 12 15 14 9
13 18 26 25 27 26 23 21 20 16 22 22 24 22 15 17 17 14 9 2 2 4 7 7 5 5 6 8 11 13 14 12
15 21 23 22 18 21 26 22 18 19 19 20 17 20 21 21 17 12 7 8 6 7 3 2 2 7 11 14 17 17 18 15
12 12 16 21 19 21 23 27 22 17 16 14 19 19 16 12 9 8 4 1 3 5 5 6 8 10 13 15 16 18 19 20
11 16 22 23 19 17 22 23 21 17 15 15 13 13 12 10 6 3 3 2 3 4 7 9 12 13 15 17 19 19 20 14
13 17 24 25 19 16 15 21 21 20 19 17 13 10 7 3 4 1 5 6 4 6 8 10 12 15 16 16 18 20 13 11
12 17 23 28 27 23 21 22 27 25 22 19 15 10 2 3 6 3 5 5 5 6 8 10 12 13 14 13 11 8 10 8
10 14 25 30 33 31 23 26 29 25 22 17 12 5 8 6 4 5 6 6 5 6 8 9 12 12 13 11 13 16 16 12
9 17 22 24 24 25 26 28 24 22 17 10 5 7 6 7 7 4 5 4 4 6 8 10 13 16 15 14 16 13 11 14
9 14 18 22 24 27 26 25 24 17 10 7 6 6 4 1 1 0 3 7 9 10 11 15 17 12 11 14 16 10 12 10
10 13 18 22 24 26 29 24 17 11 9 6 4 2 2 1 3 6 9 9 11 13 15 18 10 8 11 12 14 12 11 10
14 13 13 21 25 28 26 19 13 10 7 10 11 7 2 3 6 9 11 14 17 18 16 12 10 10 12 12 12 10 10 7
12 13 17 22 26 28 22 18 13 14 12 11 7 3 4 7 9 10 13 15 15 15 17 12 11 12 13 14 12 14 15 10
11 12 19 24 26 26 26 21 20 15 12 10 7 6 7 8 13 14 15 14 12 12 11 13 12 9 13 15 15 15 7 8
9 15 21 22 26 27 28 22 17 12 11 7 3 7 13 13 13 15 14 13 16 19 18 14 8 10 13 15 15 9 8 9
Wind_Direction
147 152 154 159 160 166 163 164 163 164 162 166 166 167 142 134 131 126 120 111 104 118 86 96 116 80 35 22 29 9 2 354
143 139 157 153 158 161 163 164 161 164 170 174 183 181 170 152 139 127 123 126 121 110 95 89 65 46 28 29 17 6 3 360
129 136 131 153 151 162 164 163 166 178 179 182 178 171 178 154 145 147 154 143 100 94 113 354 338 354 14 358 353 346 337 343
142 134 123 142 150 160 162 164 172 182 180 175 179 172 159 161 166 165 162 133 135 136 38 347 345 334 338 333 328 321 323 333
146 121 129 145 155 157 165 174 179 179 183 178 165 172 165 175 180 163 161 176 184 302 327 321 316 307 308 310 308 302 299 309
148 149 154 161 163 167 173 174 176 188 180 170 169 177 168 169 165 152 155 194 285 308 324 313 281 301 329 342 335 324 305 299
146 155 163 168 174 174 181 189 179 146 163 168 176 154 142 133 138 140 142 128 89 95 103 90 351 326 328 327 324 320 301 285
148 147 155 162 178 185 174 151 145 147 139 137 137 133 133 128 129 132 147 147 17 14 353 337 333 333 330 327 322 319 316 297
143 142 141 143 144 145 146 151 150 153 153 142 137 133 125 122 120 101 66 358 9 339 330 329 329 327 324 324 321 318 320 298
151 147 149 154 159 172 168 160 161 166 165 153 144 142 150 103 105 221 293 271 286 296 320 326 323 322 323 321 319 317 306 302
159 159 161 166 175 183 195 182 169 159 156 157 153 159 148 155 224 247 242 256 281 296 307 314 318 319 321 319 329 351 345 353
163 162 170 172 180 183 179 165 156 152 150 154 154 169 188 224 216 241 255 255 263 283 297 308 315 309 303 307 321 321 317 323
167 166 163 168 160 152 150 152 150 151 150 147 166 179 181 216 254 247 213 229 274 284 294 302 307 292 289 302 324 322 325 323
164 150 145 141 135 133 139 147 140 138 147 133 149 208 201 84 106 29 295 300 296 289 296 303 298 270 288 302 312 300 300 301
158 142 135 136 142 139 133 131 140 140 143 169 179 102 195 62 328 315 312 303 290 291 298 296 264 286 308 311 288 291 284 276
134 130 128 131 129 135 138 139 137 140 140 117 104 100 61 335 321 316 315 308 299 292 288 265 267 290 311 300 288 267 276 282
138 142 140 137 137 141 144 142 144 139 106 87 78 53 357 336 313 308 307 306 309 304 296 264 288 309 300 297 290 269 256 279
143 146 141 141 142 148 145 134 126 110 97 83 48 3 340 311 303 298 305 312 322 337 304 289 298 302 301 294 294 285 250 271
99 108 110 120 136 132 123 118 110 109 107 89 21 342 304 292 310 312 307 305 312 319 310 293 290 297 307 295 293 261 257 272
Height
799 804 808 812 816 820 825 830 833 836 839 843 846 848 851 852 853 854 856 859 859 859 860 862 862 862 863 863 863 862 862 861
798 803 807 812 814 817 821 826 830 834 839 841 844 846 850 852 854 855 857 858 859 859 860 861 861 861 862 862 862 861 860 859
797 801 806 809 812 815 820 824 829 833 837 840 841 845 848 851 854 855 856 858 858 859 861 861 861 862 862 862 860 859 859 858
795 799 804 807 811 815 819 824 828 832 834 837 841 845 849 851 853 854 855 856 857 858 858 859 860 860 860 860 860 858 858 858
794 800 806 810 813 817 820 823 825 829 833 835 839 842 845 848 849 852 854 855 855 856 856 857 857 858 858 858 858 857 856 855
792 797 802 808 811 814 818 822 824 828 831 834 837 841 843 844 848 851 853 854 855 855 855 856 856 857 857 856 856 856 855 854
790 795 800 805 810 814 818 821 824 828 830 834 836 839 842 845 848 850 851 853 853 853 854 854 855 855 855 854 853 853 851 850
790 795 800 804 810 813 817 820 823 826 830 834 836 839 842 844 846 847 848 850 851 851 852 853 852 852 852 851 851 850 849 847
788 792 797 803 808 812 815 818 822 826 830 833 836 838 841 843 845 847 849 849 850 849 850 850 850 850 849 849 848 847 845 843
787 793 797 803 808 812 816 819 823 826 829 832 836 839 842 843 844 846 847 849 849 848 849 849 849 849 848 847 845 843 841 840
786 791 795 800 806 811 816 819 821 825 828 831 835 838 841 843 844 844 846 847 847 847 847 847 847 847 846 844 842 841 840 838
783 788 793 797 803 807 813 816 820 824 827 831 834 838 840 843 843 844 845 845 845 845 845 845 845 844 842 841 839 839 838 836
778 783 789 795 799 805 809 814 819 824 828 831 834 837 840 842 843 843 844 844 843 843 842 842 841 840 839 838 836 835 834 832
773 780 786 792 798 804 811 815 820 824 829 831 835 838 840 842 842 843 842 842 841 840 839 838 837 835 834 833 832 832 831 829
769 777 784 791 797 802 809 816 821 825 828 832 836 837 840 841 841 841 840 839 838 838 836 834 832 831 830 829 828 827 827 826
770 777 785 792 798 804 810 815 820 824 829 832 833 837 838 838 838 839 839 837 835 833 832 829 828 828 827 826 824 824 824 823
771 777 784 790 796 803 808 813 819 824 828 832 833 836 837 837 837 836 835 833 831 829 827 826 824 824 823 821 820 821 820 820
770 775 781 786 794 800 807 813 819 823 828 832 835 837 838 838 836 833 831 829 827 826 825 822 820 819 818 817 816 816 816 816
772 776 783 790 795 802 809 814 819 824 828 831 834 835 836 835 834 833 830 826 824 823 822 820 817 815 814 813 813 814 814 814